| time (UTC) | temp F | wind direction | speed MPH | gust MPH | rain 1hr in | rain 24hr in | rain mn in | humidity % | barometer mb |
| 20260503191549 | 82 | 248 | 3.0 | 9.0 | 0.00 | 0.00 | 0.00 | 38 | 1018.1 |
| 20260503190549 | 81 | 203 | 4.0 | 9.0 | 0.00 | 0.00 | 0.00 | 38 | 1018.2 |
| 20260503185549 | 81 | 225 | 4.0 | 9.0 | 0.00 | 0.00 | 0.00 | 37 | 1018.4 |
| 20260503184548 | 81 | 225 | 5.0 | 11.0 | 0.00 | 0.00 | 0.00 | 37 | 1018.5 |
| 20260503183549 | 81 | 203 | 6.0 | 15.0 | 0.00 | 0.00 | 0.00 | 39 | 1018.7 |
| 20260503182548 | 81 | 225 | 5.0 | 11.0 | 0.00 | 0.00 | 0.00 | 40 | 1018.8 |
| 20260503181549 | 81 | 203 | 4.0 | 9.0 | 0.00 | 0.00 | 0.00 | 42 | 1019.0 |
| 20260503180549 | 81 | 225 | 4.0 | 13.0 | 0.00 | 0.00 | 0.00 | 44 | 1019.3 |
| 20260503175608 | 81 | 270 | 3.0 | 12.0 | 0.00 | 0.00 | 0.00 | 43 | 1019.4 |
| 20260503174549 | 80 | 225 | 3.0 | 7.0 | 0.00 | 0.00 | 0.00 | 44 | 1019.7 |
| 20260503173549 | 79 | 225 | 4.0 | 10.0 | 0.00 | 0.00 | 0.00 | 43 | 1019.7 |
| 20260503172609 | 79 | 225 | 4.0 | 10.0 | 0.00 | 0.00 | 0.00 | 45 | 1019.9 |
| 20260503171549 | 78 | 225 | 4.0 | 9.0 | 0.00 | 0.00 | 0.00 | 46 | 1020.1 |
| 20260503170609 | 78 | 203 | 5.0 | 11.0 | 0.00 | 0.00 | 0.00 | 47 | 1020.2 |
| 20260503150548 | 72 | 225 | 3.0 | 8.0 | 0.00 | 0.00 | 0.00 | 53 | 1020.6 |
| 20260503130549 | 63 | 248 | 3.0 | 5.0 | 0.00 | 0.00 | 0.00 | 67 | 1020.2 |
| 20260503110608 | 60 | 248 | 3.0 | 7.0 | 0.00 | 0.00 | 0.00 | 68 | 1019.4 |
| 20260503081548 | 62 | 0.0 | 2.0 | 0.00 | 0.00 | 0.00 | 61 | 1019.1 | |
| 20260503080608 | 62 | 203 | 2.0 | 3.0 | 0.00 | 0.00 | 0.00 | 61 | 1019.1 |
| 20260503072548 | 62 | 180 | 2.0 | 5.0 | 0.00 | 0.00 | 0.00 | 61 | 1019.4 |
| 20260503071548 | 62 | 180 | 2.0 | 3.0 | 0.00 | 0.00 | 0.00 | 61 | 1019.4 |
| 20260503070548 | 63 | 180 | 2.0 | 5.0 | 0.00 | 0.00 | 0.00 | 60 | 1019.5 |
| 20260503054548 | 64 | 180 | 2.0 | 4.0 | 0.00 | 0.00 | 0.00 | 55 | 1019.3 |
| 20260503053548 | 65 | 180 | 2.0 | 6.0 | 0.00 | 0.00 | 0.00 | 55 | 1019.3 |
| 20260503052548 | 64 | 180 | 1.0 | 3.0 | 0.00 | 0.00 | 0.00 | 56 | 1019.2 |
| 20260503051548 | 65 | 180 | 1.0 | 2.0 | 0.00 | 0.00 | 0.00 | 55 | 1019.2 |
| 20260503050608 | 65 | 180 | 1.0 | 5.0 | 0.00 | 0.00 | 0.00 | 55 | 1019.2 |
| 20260503045547 | 65 | 180 | 1.0 | 5.0 | 0.00 | 0.00 | 0.00 | 54 | 1019.1 |
| 20260503044607 | 65 | 180 | 1.0 | 5.0 | 0.00 | 0.00 | 0.00 | 54 | 1019.2 |
| 20260503043547 | 66 | 180 | 1.0 | 3.0 | 0.00 | 0.00 | 0.00 | 53 | 1019.2 |
| 20260503042547 | 66 | 158 | 2.0 | 6.0 | 0.00 | 0.00 | 0.00 | 52 | 1019.1 |
| 20260503041547 | 66 | 180 | 1.0 | 5.0 | 0.00 | 0.00 | 0.00 | 52 | 1019.1 |
| 20260503040547 | 66 | 180 | 2.0 | 5.0 | 0.00 | 0.00 | 0.00 | 52 | 1019.0 |
| 20260503035547 | 66 | 203 | 1.0 | 3.0 | 0.00 | 0.00 | 0.00 | 52 | 1019.1 |
| 20260503034547 | 66 | 203 | 1.0 | 3.0 | 0.00 | 0.00 | 0.00 | 52 | 1019.1 |
| 20260503033547 | 66 | 203 | 1.0 | 3.0 | 0.00 | 0.00 | 0.00 | 53 | 1019.0 |
| 20260503032547 | 66 | 0.0 | 1.0 | 0.00 | 0.00 | 0.00 | 55 | 1018.9 | |
| 20260503031547 | 66 | 0.0 | 2.0 | 0.00 | 0.00 | 0.00 | 56 | 1018.8 | |
| 20260503030547 | 65 | 0.0 | 1.0 | 0.00 | 0.00 | 0.00 | 57 | 1018.6 | |
| 20260503025547 | 67 | 0.0 | 1.0 | 0.00 | 0.00 | 0.00 | 52 | 1018.7 | |
| 20260503024607 | 67 | 0.0 | 1.0 | 0.00 | 0.00 | 0.00 | 53 | 1018.6 | |
| 20260503023547 | 68 | 0.0 | 2.0 | 0.00 | 0.00 | 0.00 | 50 | 1018.6 | |
| 20260503022547 | 68 | 0.0 | 1.0 | 0.00 | 0.00 | 0.00 | 53 | 1018.4 | |
| 20260503021547 | 67 | 0.0 | 1.0 | 0.00 | 0.00 | 0.00 | 56 | 1018.4 | |
| 20260503020547 | 67 | 0.0 | 0.0 | 0.00 | 0.00 | 0.00 | 54 | 1018.2 | |
| 20260503015547 | 67 | 0.0 | 0.0 | 0.00 | 0.00 | 0.00 | 50 | 1018.1 | |
| 20260503014547 | 68 | 0.0 | 0.0 | 0.00 | 0.00 | 0.00 | 49 | 1018.2 | |
| 20260503013547 | 69 | 0.0 | 0.0 | 0.00 | 0.00 | 0.00 | 47 | 1018.1 | |
| 20260503012627 | 71 | 0.0 | 0.0 | 0.00 | 0.00 | 0.00 | 44 | 1017.9 | |
| 20260503011607 | 71 | 0.0 | 0.0 | 0.00 | 0.00 | 0.00 | 43 | 1017.9 | |
| 20260503010547 | 72 | 0.0 | 0.0 | 0.00 | 0.00 | 0.00 | 42 | 1017.9 | |
| 20260503005547 | 73 | 0.0 | 1.0 | 0.00 | 0.00 | 0.00 | 43 | 1017.9 | |
| 20260503004547 | 74 | 225 | 1.0 | 4.0 | 0.00 | 0.00 | 0.00 | 39 | 1017.8 |
| 20260503003547 | 74 | 225 | 1.0 | 2.0 | 0.00 | 0.00 | 0.00 | 38 | 1017.7 |
| 20260503002607 | 74 | 225 | 1.0 | 3.0 | 0.00 | 0.00 | 0.00 | 38 | 1017.6 |
| 20260503001547 | 75 | 338 | 2.0 | 4.0 | 0.00 | 0.00 | 0.00 | 37 | 1017.6 |
| 20260503000547 | 75 | 338 | 1.0 | 3.0 | 0.00 | 0.00 | 0.00 | 38 | 1017.5 |
| 20260502235607 | 75 | 0 | 1.0 | 3.0 | 0.00 | 0.00 | 0.00 | 37 | 1017.6 |
| 20260502234547 | 75 | 0 | 2.0 | 5.0 | 0.00 | 0.00 | 0.00 | 36 | 1017.6 |
| 20260502233547 | 76 | 293 | 2.0 | 4.0 | 0.00 | 0.00 | 0.00 | 37 | 1017.8 |
| 20260502232547 | 76 | 315 | 1.0 | 3.0 | 0.00 | 0.00 | 0.00 | 37 | 1017.8 |
| 20260502231547 | 76 | 315 | 1.0 | 7.0 | 0.00 | 0.00 | 0.00 | 36 | 1017.9 |
| 20260502230547 | 77 | 180 | 1.0 | 3.0 | 0.00 | 0.00 | 0.00 | 35 | 1018.0 |
| 20260502225547 | 77 | 338 | 1.0 | 3.0 | 0.00 | 0.00 | 0.00 | 35 | 1017.9 |
| 20260502224547 | 77 | 270 | 1.0 | 4.0 | 0.00 | 0.00 | 0.00 | 36 | 1017.9 |
| 20260502223607 | 78 | 338 | 2.0 | 5.0 | 0.00 | 0.00 | 0.00 | 32 | 1018.1 |
| 20260502222547 | 81 | 315 | 1.0 | 3.0 | 0.00 | 0.00 | 0.00 | 32 | 1018.1 |
| 20260502221607 | 79 | 293 | 3.0 | 7.0 | 0.00 | 0.00 | 0.00 | 32 | 1018.1 |
| 20260502220549 | 79 | 23 | 1.0 | 7.0 | 0.00 | 0.00 | 0.00 | 33 | 1018.1 |
| 20260502215549 | 79 | 203 | 2.0 | 4.0 | 0.00 | 0.00 | 0.00 | 36 | 1018.2 |
| 20260502214549 | 78 | 203 | 2.0 | 5.0 | 0.00 | 0.00 | 0.00 | 32 | 1018.3 |
| 20260502213549 | 80 | 0 | 1.0 | 4.0 | 0.00 | 0.00 | 0.00 | 32 | 1018.4 |
| 20260502212549 | 80 | 338 | 2.0 | 5.0 | 0.00 | 0.00 | 0.00 | 31 | 1018.7 |
| 20260502211609 | 80 | 158 | 1.0 | 4.0 | 0.00 | 0.00 | 0.00 | 34 | 1018.8 |
| 20260502210609 | 78 | 293 | 1.0 | 4.0 | 0.00 | 0.00 | 0.00 | 35 | 1018.9 |
| 20260502205549 | 80 | 338 | 1.0 | 5.0 | 0.00 | 0.00 | 0.00 | 34 | 1019.1 |
| 20260502204549 | 80 | 0 | 1.0 | 3.0 | 0.00 | 0.00 | 0.00 | 35 | 1019.3 |
| 20260502203549 | 78 | 0 | 2.0 | 8.0 | 0.00 | 0.00 | 0.00 | 36 | 1019.3 |
| 20260502202549 | 79 | 0 | 2.0 | 7.0 | 0.00 | 0.00 | 0.00 | 33 | 1019.3 |
| 20260502201549 | 80 | 338 | 2.0 | 3.0 | 0.00 | 0.00 | 0.00 | 34 | 1019.5 |
| 20260502200547 | 79 | 0 | 2.0 | 5.0 | 0.00 | 0.00 | 0.00 | 34 | 1019.6 |
| 20260502195549 | 78 | 225 | 2.0 | 6.0 | 0.00 | 0.00 | 0.00 | 37 | 1019.7 |
| 20260502194549 | 79 | 0 | 2.0 | 5.0 | 0.00 | 0.00 | 0.00 | 36 | 1019.8 |
| 20260502193549 | 76 | 203 | 2.0 | 6.0 | 0.00 | 0.00 | 0.00 | 34 | 1019.8 |
| 20260502192549 | 78 | 0 | 1.0 | 11.0 | 0.00 | 0.00 | 0.00 | 35 | 1020.0 |